This demonstration page uses our WeatherBlox Daily Observations layout. Learn more.

36.17497, -115.13722

Hourly Observations for December 7, 2019

Temp ( °F °C ) Dew Point ( °F °C ) Humidity (%) Winds ( mph kmh ) Pressure ( in mb ) Visibility ( mi km ) Precip ( " mm )
12:53 am 00:53 Partly Cloudy 50 10 43 6.1 77 77 Calm 30.21 1023 10 16.0934 0 0
1:53 am 01:53 Cloudy with Light Rain 50 10 44 6.7 80 80 Calm 30.21 1023 10 16.0934 0.001 0.001
2:53 am 02:53 Cloudy 49 9.4 45 7.2 86 86 Calm 30.2 1023 10 16.0934 0.01 0.254
3:53 am 03:53 Cloudy 51 10.6 46 7.8 83 83 Calm 30.19 1022 10 16.0934 0 0
4:53 am 04:53 Clear 50 10 45 7.2 83 83 Calm 30.19 1022 10 16.0934 0 0
5:53 am 05:53 Cloudy 49 9.4 45 7.2 86 86 WSW 3 6 30.2 1023 10 16.0934 0 0
6:53 am 06:53 Cloudy 50 10 45 7.2 83 83 Calm 30.21 1023 10 16.0934 0 0
7:53 am 07:53 Cloudy 52 11.1 45 7.2 77 77 Calm 30.21 1023 10 16.0934 0 0
8:53 am 08:53 Mostly Cloudy 53 11.7 46 7.8 77 77 SE 3 6 30.22 1023 10 16.0934 0 0
9:53 am 09:53 Mostly Sunny 56 13.3 45 7.2 67 67 SE 6 9 30.22 1023 10 16.0934 0 0
10:53 am 10:53 Cloudy 56 13.3 45 7.2 67 67 E 3 6 30.19 1023 10 16.0934 0 0
11:53 am 11:53 Cloudy 57 13.9 46 7.8 67 67 SE 3 6 30.16 1021 10 16.0934 0 0
12:53 pm 12:53 Sunny 58 14.4 47 8.3 67 67 E 7 11 30.11 1020 10 16.0934 0 0
1:53 pm 13:53 Partly Cloudy 59 15 47 8.3 64 64 ENE 8 13 30.09 1019 10 16.0934 0 0
2:53 pm 14:53 Sunny 59 15 47 8.3 64 64 E 6 9 30.09 1019 10 16.0934 0 0
3:53 pm 15:53 Sunny 58 14.4 48 8.9 70 70 ENE 8 13 30.08 1019 10 16.0934 0 0
4:53 pm 16:53 Partly Cloudy 57 13.9 47 8.3 69 69 NE 5 7 30.08 1019 10 16.0934 0 0
5:53 pm 17:53 Mostly Clear 56 13.3 47 8.3 72 72 ENE 10 17 30.08 1019 10 16.0934 0 0
6:53 pm 18:53 Clear 56 13.3 47 8.3 72 72 NNE 5 7 30.07 1018 10 16.0934 0 0
7:53 pm 19:53 Clear 55 12.8 47 8.3 74 74 ENE 5 7 30.05 1018 10 16.0934 0 0
8:53 pm 20:53 Clear 55 12.8 47 8.3 74 74 ENE 9 15 30.05 1018 10 16.0934 0 0
9:53 pm 21:53 Clear 54 12.2 47 8.3 77 77 ENE 7 11 30.04 1017 10 16.0934 0 0
10:53 pm 22:53 Clear 54 12.2 47 8.3 77 77 N 3 6 30.04 1017 10 16.0934 0 0
11:53 pm 23:53 Mostly Clear 54 12.2 48 8.9 80 80 NE 8 13 30.01 1016 10 16.0934 0 0

Powered by AerisWeather